Location: B�hl
(48.6968°N, 8.1352°E)
Time: 21:30:24
(UTC+00:00)

Cosmos 2360 Rocket - Pass Details

Date: 08 March 2021
Orbit: 832 x 846 km, 71.0° (Epoch: 14 April)

Event Time Altitude Azimuth Distance (km) Brightness Sun altitude
Rises 19:03:02 0° 238° (WSW) 3,386 6.0 -17.3°
Reaches altitude 10° 19:05:43 10° 248° (WSW) 2,457 5.4 -17.8°
Maximum altitude 19:10:46 33° 311° (NW) 1,398 3.9 -18.6°
Drops below altitude 10° 19:15:51 10° 15° (NNE) 2,477 4.6 -19.4°
Sets 19:18:35 0° 25° (NNE) 3,417 5.3 -19.8°
